Conditions Actuelle
Plutôt Nuageux



Pression
30.21 (inHG) - 1023.03 (mb)
Visibilité

9.7 (km) - 6.0 (miles)
   Température
17  °C
Température
10  °C
Point de Rosée
64  %
 Humidité
   Vitesse du Vent
11  km/h
6  kts
7  mph
3.1  m/s
   Direction du Vent
N
45°
E
90°
135°
S
180°
225°
O
270°
315°
 230°

Sud est
   Données D'Aéroport
LFBG
Cognac-Châteaubernard (BA 709) Air Base
Metar :LFBG 280900Z AUTO 23006KT 200V260 9999 BKN034 17/10 Q1023 NOSIG
28-05-2024 11:00
   Informations de métar brut
Le METAR brut est le format le plus courant au monde pour la transmission de données météorologiques d'observation. Il est hautement standardisé par l’Organisation de l’aviation civile internationale (OACI), ce qui lui permet d’être compris dans la plupart des pays du monde.
   API Information
Données fournies par
https://www.checkwx.com/weather/LFBG

Météo aéronautique fournissant des rapports météorologiques METAR, TAF, AIRMET, SIGMET et OUTLOOK
   © Info
CSS/SVG/PHP les scripts ont été développés pa weather34.com pour une utilisation dans le modèle weather34 © 2015-2024

Informations sur le guide fournies par Metar-Wikipedia